Regional Weather Roundup
Issued by NWS

Home | Current Version | Previous Version | Graphics & Text | Print | Product List | Glossary On
Versions: 1 2 3 4 5 6 7 8 9 10 11 12 13 14 15 16 17 18 19 20 21 22 23 24 25 26 27 28 29 30 31 32 33 34 35 36 37 38 39 40 41 42 43 44 45 46 47 48 49 50
000
ASUS45 KBOU 060107
RWRCO

WEATHER ROUNDUP FOR COLORADO
NATIONAL WEATHER SERVICE DENVER/BOULDER CO
600 PM MST MON DEC 05 2016

NOTE: "FAIR" INDICATES FEW OR NO CLOUDS BELOW 12000 FEET WITH NO
SIGNIFICANT WEATHER AND/OR OBSTRUCTIONS TO VISIBILITY.

COZ001>005-013-030-031-060200-
...NORTHWEST COLORADO...

CITY           SKY/WX    TMP DP  RH WIND       PRES   REMARKS
CRAIG          CLOUDY    15  -3  44 SW6       29.95R WCI   6
HAYDEN         FAIR      14  -6  41 W6        29.92R WCI   5
MEEKER         CLOUDY    19   5  54 NE7       29.94R WCI  10
MOUNT WERNER   NOT AVBL
STEAMBOAT SPGS CLOUDY    15  -5  40 W8        29.90R WCI   4
WALDEN           N/A      9  -9  43 W3        29.83R
$$

COZ006>008-011-060200-
...WEST CENTRAL VALLEYS...

CITY           SKY/WX    TMP DP  RH WIND       PRES   REMARKS
GRAND JUNCTION FAIR      33  12  41 W12       29.89R WCI  24
MONTROSE       FAIR      37  13  37 NW15      29.87R
EAGLE          CLOUDY    28  10  47 NW16G24   29.83R WCI  17
RIFLE          CLOUDY    32   2  27 NW20G36   29.89R WCI  20
DELTA          NOT AVBL
NUCLA          FAIR      34  18  51 NW7       29.91R WCI  28
$$

COZ017>023-064>068-060200-
...SOUTHWEST COLORADO...

CITY           SKY/WX    TMP DP  RH WIND       PRES   REMARKS
DURANGO        FAIR      37  16  42 W16       29.84R
CORTEZ         FAIR      35  20  54 CALM      29.86S
PAGOSA SPRINGS FAIR      37  -3  18 SW9       29.84R
TELLURIDE      NOT AVBL
WOLF CREEK PAS FAIR      14  12  92 S13       29.90R WCI   0
$$

COZ009-010-012-014-032>034-037-058>063-060200-
...CENTRAL COLORADO...

CITY           SKY/WX    TMP DP  RH WIND       PRES   REMARKS
ASPEN          MOCLDY    24  17  74 N9G18     29.79R WCI  14
BUENA VISTA    CLOUDY    31   3  30 SW7       29.75S WCI  24
COPPER MTN     CLOUDY    14   7  73 MISG      29.68S
BERTHOUD PASS  LGT SNOW  -2 -13  60 NW22G35   29.61R WCI -26
COTTONWOOD PAS CLOUDY    28   1  31 SW8G20    29.75S WCI  20
GUNNISON       FAIR      29  10  45 W10       29.82R WCI  20
KREMMLING      CLOUDY    19   1  45 N10G18    29.86R WCI   8
LEADVILLE      CLOUDY    18   7  62 N5        29.70S WCI  11
MONARCH PASS   MOCLDY    14   5  67 W48G60    29.83R WCI -11
SALIDA         FAIR      37   9  31 W23G32    29.85R
SUNLIGHT       LGT SNOW   9   5  85 W12G24    29.80R VSB 3/4 WCI  -6
WILKERSON PASS CLOUDY    18   3  53 SW17G26   29.73F WCI   2
$$

COZ069>075-060200-
...SAN LUIS VALLEY/SANGRE DE CRISTO MOUNTAINS...

CITY           SKY/WX    TMP DP  RH WIND       PRES   REMARKS
ALAMOSA        FAIR      29  17  61 W10       29.80R WCI  20
LA VETA PASS   FAIR      27  12  54 N9        29.82R WCI  17
SAGUACHE       FAIR      28  10  47 N7        29.81R WCI  21
$$

COZ035-036-038>040-060200-
...NORTHERN COLORADO FRONT RANGE...

CITY           SKY/WX    TMP DP  RH WIND       PRES   REMARKS
DENVER INTL AP FAIR      26   2  35 N22G35    29.75R WCI  12
DMNS CITY PARK   N/A     27   5  39 E10G23    29.74R WCI  17
AURORA         PTCLDY    23   4  43 E13       29.77R WCI  11
FRONT RANGE AP MOCLDY    28   3  34 N16G23    29.80R WCI  17
ERIE MUNI ARPT FAIR      30   6  35 CALM      29.76R
BOULDER MUN AP FAIR      32   5  32 W35G41    29.71S WCI  17
CENTENNIAL     FAIR      25   4  40 E16G25    29.75R WCI  12
BROOMFIELD     PTCLDY    32   7  34 SW15G35   29.70R WCI  22
FORT COLLINS   FAIR      27   0  31 NW38G49   29.80R WCI   9
LONGMONT       FAIR      34   7  31 NW22G30   29.78R WCI  23
$$

COZ041-046-047-076>085-087-088-060200-
...PIKES PEAK/PALMER DIVIDE AND SOUTHERN FOOTHILLS...

CITY           SKY/WX    TMP DP  RH WIND       PRES   REMARKS
COLO. SPRINGS  FAIR      43   0  16 SW17      29.72R
A. F. ACADEMY  FAIR      40   1  19 SW8       29.70R
SCHRIEVER AFB  NOT AVBL
ELLICOTT       FAIR     N/A N/A N/A NE25G31   29.75R
FALCON         FAIR      23   7  48 NE15      29.75R WCI  10
FORT CARSON    FAIR      44   2  17 SW15      29.71R
LIMON          FAIR      25  -2  31 N17G30    29.81R WCI  12
MONUMENT HILL  FAIR      19   3  49 E15       29.77R WCI   5
TRINIDAD       FAIR      47   9  21 W13       29.71R
$$

COZ042>045-048>051-090-091-060200-
...NORTHEAST COLORADO...

CITY           SKY/WX    TMP DP  RH WIND       PRES   REMARKS
GREELEY ARPT   FAIR      28   0  29 NW36G45   29.75  WCI  11
AKRON          MOCLDY    24  10  55 N20       29.84R WCI  10
BURLINGTON     FAIR      32   9  38 N26G38    29.81R WCI  18
WRAY           NOT AVBL
STERLING       FAIR      27  16  63 NE12      29.86R WCI  16
HOLYOKE        FAIR      32  18  55 N17       29.86R WCI  21
FORT MORGAN    MOCLDY    27   3  36 N13G23    29.86R WCI  16
$$

COZ086-089-092>099-060200-
...SOUTHEAST COLORADO...

CITY           SKY/WX    TMP DP  RH WIND       PRES   REMARKS
PUEBLO         FAIR      50   2  14 NW20      29.70R
LA JUNTA       FAIR      47  22  37 NE20G28   29.73R
LAMAR          FAIR      44  11  26 NE28G44   29.72R
SPRINGFIELD      N/A     47  16  29 N18G26    29.66R
$$



USA.gov is the U.S. government's official web portal to all federal, state and local government web resources and services.